Cartosat-1

operational
NORAD ID: 28649 Int'l Des: 2005-017 Owner: ISRO Country: IN
LEOCIRCULARRETROGRADESSO

关于 Cartosat-1

正在加载描述...

实时位置

正在加载3D地球...

即将过境

高度历史

Altitude vs Time

uPlot chart will show altitude changes over time

两行轨道根数

1 28649U 05017A 26062.03656338 .00002003 00000-0 20931-3 0 9995
2 28649 97.5422 89.8803 0002493 76.5331 283.6165 14.90736707128005
Epoch: Mar 3, 2026 • Age: 21 hours

当前状态

高度 624.1 km
速度 7.54 km/s
星下点 -72.49°S, 124.19°E
发射日期 May 5, 2005
运行时间 20.8 years
类型 other

技术详情

分类 Payload
质量 1560.00 kg
干质量 1560.00 kg
总质量 1560.00 kg
长度 2.80 m
直径 2.00 m
跨度 12.00 m
形状 Box + 2 Pan
制造商 ISRO
平台类型 IRS
阶段状态 In Orbit
所有者/国家 ISRO/IN

大型星座

Loading constellations...